| time (UTC) | temp C | wind direction | speed KPH | gust KPH | rain 1hr cm | rain 24hr cm | rain mn cm | humidity % | barometer mb |
| 20260507000458 | 16 | 50 | 9.7 | 16.1 | 0.13 | 0.64 | 0.46 | 92 | 1007.8 |
| 20260506235959 | 16 | 50 | 9.7 | 17.7 | 0.28 | 0.64 | 0.46 | 93 | 1007.7 |
| 20260506235458 | 16 | 50 | 9.7 | 17.7 | 0.46 | 0.64 | 0.46 | 93 | 1007.6 |
| 20260506234958 | 16 | 50 | 8.0 | 16.1 | 0.46 | 0.64 | 0.46 | 93 | 1007.6 |
| 20260506234459 | 16 | 50 | 8.0 | 12.9 | 0.46 | 0.64 | 0.46 | 93 | 1007.6 |
| 20260506233958 | 16 | 50 | 8.0 | 12.9 | 0.46 | 0.64 | 0.46 | 93 | 1007.7 |
| 20260506233458 | 16 | 50 | 11.3 | 19.3 | 0.46 | 0.64 | 0.46 | 92 | 1007.6 |
| 20260506232959 | 16 | 50 | 12.9 | 19.3 | 0.46 | 0.64 | 0.46 | 92 | 1007.6 |
| 20260506232458 | 16 | 50 | 12.9 | 20.9 | 0.46 | 0.64 | 0.46 | 92 | 1007.5 |
| 20260506231459 | 16 | 50 | 12.9 | 20.9 | 0.46 | 0.64 | 0.46 | 92 | 1007.3 |
| 20260506230958 | 16 | 50 | 14.5 | 24.1 | 0.41 | 0.58 | 0.41 | 92 | 1007.3 |
| 20260506230458 | 16 | 50 | 11.3 | 24.1 | 0.33 | 0.51 | 0.33 | 90 | 1007.4 |
| 20260506225959 | 17 | 50 | 11.3 | 19.3 | 0.18 | 0.36 | 0.18 | 92 | 1007.4 |
| 20260506225239 | -17 | 0.0 | 0.0 | 0.00 | 0.18 | 0.00 | 1007.3 | ||
| 20260506152501 | 15 | 50 | 8.0 | 19.3 | 0.18 | 0.30 | 0.30 | 93 | 1008.8 |
| 20260506151502 | 15 | 50 | 9.7 | 22.5 | 0.13 | 0.23 | 0.23 | 92 | 1008.8 |
| 20260506150502 | 15 | 50 | 11.3 | 25.7 | 0.13 | 0.18 | 0.18 | 92 | 1008.7 |
| 20260506145501 | 16 | 50 | 11.3 | 24.1 | 0.13 | 0.18 | 0.18 | 92 | 1008.4 |
| 20260506145001 | 16 | 50 | 8.0 | 22.5 | 0.10 | 0.15 | 0.15 | 92 | 1008.5 |
| 20260506144502 | 15 | 50 | 8.0 | 22.5 | 0.10 | 0.15 | 0.15 | 92 | 1008.5 |
| 20260506144001 | 15 | 50 | 6.4 | 14.5 | 0.10 | 0.15 | 0.15 | 92 | 1008.6 |
| 20260506143501 | 15 | 50 | 8.0 | 14.5 | 0.10 | 0.15 | 0.15 | 92 | 1008.4 |
| 20260506143003 | 15 | 50 | 6.4 | 12.9 | 0.10 | 0.13 | 0.13 | 91 | 1008.3 |
| 20260506142501 | 15 | 50 | 3.2 | 9.7 | 0.10 | 0.13 | 0.13 | 91 | 1008.5 |
| 20260506142002 | 15 | 50 | 4.8 | 12.9 | 0.08 | 0.10 | 0.10 | 91 | 1008.6 |
| 20260506141502 | 16 | 50 | 6.4 | 14.5 | 0.08 | 0.10 | 0.10 | 91 | 1008.8 |
| 20260506141001 | 16 | 50 | 6.4 | 14.5 | 0.05 | 0.08 | 0.08 | 91 | 1008.8 |
| 20260506140501 | 16 | 50 | 4.8 | 12.9 | 0.03 | 0.05 | 0.05 | 90 | 1008.8 |
| 20260506135001 | 16 | 50 | 6.4 | 12.9 | 0.05 | 0.05 | 0.05 | 90 | 1008.6 |
| 20260506134001 | 16 | 50 | 6.4 | 14.5 | 0.05 | 0.05 | 0.05 | 90 | 1008.7 |
| 20260506133501 | 16 | 50 | 6.4 | 16.1 | 0.05 | 0.05 | 0.05 | 90 | 1008.8 |
| 20260506133002 | 16 | 50 | 6.4 | 16.1 | 0.03 | 0.03 | 0.03 | 90 | 1008.9 |
| 20260506132501 | 16 | 50 | 6.4 | 12.9 | 0.03 | 0.03 | 0.03 | 89 | 1009.0 |
| 20260506132002 | 16 | 50 | 6.4 | 19.3 | 0.03 | 0.03 | 0.03 | 89 | 1009.0 |
| 20260506131503 | 16 | 50 | 6.4 | 19.3 | 0.03 | 0.03 | 0.03 | 88 | 1009.0 |
| 20260506131001 | 16 | 50 | 8.0 | 19.3 | 0.03 | 0.03 | 0.03 | 88 | 1009.0 |
| 20260506130501 | 16 | 50 | 8.0 | 19.3 | 0.03 | 0.03 | 0.03 | 87 | 1009.0 |
| 20260506130004 | 16 | 50 | 8.0 | 19.3 | 0.00 | 0.00 | 0.00 | 87 | 1009.0 |
| 20260506125501 | 16 | 50 | 9.7 | 19.3 | 0.00 | 0.00 | 0.00 | 87 | 1009.1 |
| 20260506125002 | 16 | 50 | 9.7 | 17.7 | 0.00 | 0.00 | 0.00 | 86 | 1009.1 |
| 20260506124001 | 16 | 50 | 9.7 | 24.1 | 0.00 | 0.00 | 0.00 | 84 | 1009.1 |
| 20260506123501 | 16 | 50 | 11.3 | 20.9 | 0.00 | 0.00 | 0.00 | 83 | 1008.9 |
| 20260506122501 | 17 | 50 | 9.7 | 20.9 | 0.00 | 0.00 | 0.00 | 82 | 1008.8 |
| 20260506121502 | 17 | 50 | 9.7 | 17.7 | 0.00 | 0.00 | 0.00 | 81 | 1008.7 |
| 20260506121001 | 17 | 50 | 11.3 | 20.9 | 0.00 | 0.00 | 0.00 | 80 | 1008.6 |
| 20260506120502 | 17 | 50 | 11.3 | 20.9 | 0.00 | 0.00 | 0.00 | 79 | 1008.5 |
| 20260506120004 | 17 | 50 | 11.3 | 20.9 | 0.00 | 0.00 | 0.00 | 79 | 1008.5 |
| 20260506115001 | 17 | 50 | 12.9 | 24.1 | 0.00 | 0.00 | 0.00 | 78 | 1008.5 |
| 20260506114502 | 17 | 50 | 12.9 | 22.5 | 0.00 | 0.00 | 0.00 | 78 | 1008.6 |
| 20260506114001 | 17 | 50 | 11.3 | 22.5 | 0.00 | 0.00 | 0.00 | 78 | 1008.5 |
| 20260506113502 | 17 | 50 | 9.7 | 20.9 | 0.00 | 0.00 | 0.00 | 78 | 1008.4 |
| 20260506113002 | 17 | 50 | 9.7 | 20.9 | 0.00 | 0.00 | 0.00 | 78 | 1008.5 |
| 20260506112501 | 17 | 50 | 11.3 | 19.3 | 0.00 | 0.00 | 0.00 | 78 | 1008.5 |
| 20260506112001 | 17 | 50 | 12.9 | 20.9 | 0.00 | 0.00 | 0.00 | 78 | 1008.6 |
| 20260506111502 | 17 | 50 | 12.9 | 25.7 | 0.00 | 0.00 | 0.00 | 77 | 1008.5 |
| 20260506111001 | 17 | 50 | 11.3 | 25.7 | 0.00 | 0.00 | 0.00 | 77 | 1008.5 |
| 20260506110501 | 17 | 50 | 9.7 | 19.3 | 0.00 | 0.00 | 0.00 | 77 | 1008.5 |
| 20260506110004 | 17 | 50 | 9.7 | 20.9 | 0.00 | 0.00 | 0.00 | 77 | 1008.4 |
| 20260506105501 | 17 | 50 | 9.7 | 20.9 | 0.00 | 0.00 | 0.00 | 77 | 1008.3 |
| 20260506104502 | 17 | 50 | 9.7 | 20.9 | 0.00 | 0.00 | 0.00 | 76 | 1008.1 |
| 20260506104001 | 17 | 50 | 9.7 | 19.3 | 0.00 | 0.00 | 0.00 | 76 | 1008.1 |
| 20260506103501 | 17 | 50 | 11.3 | 20.9 | 0.00 | 0.00 | 0.00 | 76 | 1008.0 |
| 20260506102501 | 17 | 50 | 9.7 | 19.3 | 0.00 | 0.00 | 0.00 | 76 | 1008.0 |
| 20260506102001 | 17 | 50 | 8.0 | 19.3 | 0.00 | 0.00 | 0.00 | 76 | 1007.9 |
| 20260506101502 | 17 | 50 | 8.0 | 19.3 | 0.00 | 0.00 | 0.00 | 76 | 1007.8 |
| 20260506101001 | 17 | 50 | 11.3 | 19.3 | 0.00 | 0.00 | 0.00 | 75 | 1007.9 |
| 20260506100501 | 17 | 50 | 9.7 | 20.9 | 0.00 | 0.00 | 0.00 | 75 | 1007.9 |
| 20260506100004 | 17 | 50 | 9.7 | 20.9 | 0.00 | 0.00 | 0.00 | 75 | 1007.9 |
| 20260506095501 | 17 | 50 | 9.7 | 30.6 | 0.00 | 0.00 | 0.00 | 75 | 1007.9 |
| 20260506094503 | 17 | 50 | 8.0 | 17.7 | 0.00 | 0.00 | 0.00 | 74 | 1008.1 |
| 20260506094001 | 17 | 50 | 8.0 | 17.7 | 0.00 | 0.00 | 0.00 | 74 | 1008.1 |
| 20260506093501 | 17 | 50 | 8.0 | 16.1 | 0.00 | 0.00 | 0.00 | 74 | 1008.1 |
| 20260506092501 | 17 | 50 | 8.0 | 19.3 | 0.00 | 0.00 | 0.00 | 73 | 1008.0 |
| 20260506092002 | 18 | 50 | 8.0 | 19.3 | 0.00 | 0.00 | 0.00 | 72 | 1008.0 |
| 20260506091504 | 18 | 50 | 8.0 | 17.7 | 0.00 | 0.00 | 0.00 | 72 | 1008.1 |
| 20260506091002 | 18 | 50 | 9.7 | 20.9 | 0.00 | 0.00 | 0.00 | 72 | 1008.1 |
| 20260506090504 | 18 | 50 | 9.7 | 20.9 | 0.00 | 0.00 | 0.00 | 71 | 1008.0 |
| 20260506090005 | 18 | 50 | 8.0 | 20.9 | 0.00 | 0.10 | 0.00 | 71 | 1008.1 |
| 20260506085001 | 18 | 50 | 8.0 | 19.3 | 0.00 | 0.10 | 0.00 | 71 | 1008.1 |
| 20260506084502 | 18 | 50 | 8.0 | 17.7 | 0.00 | 0.10 | 0.00 | 71 | 1008.1 |
| 20260506084001 | 18 | 50 | 9.7 | 19.3 | 0.00 | 0.10 | 0.00 | 70 | 1008.2 |
| 20260506083501 | 18 | 50 | 9.7 | 19.3 | 0.00 | 0.10 | 0.00 | 70 | 1008.2 |
| 20260506083003 | 18 | 50 | 9.7 | 19.3 | 0.00 | 0.10 | 0.00 | 70 | 1008.2 |
| 20260506082501 | 18 | 50 | 8.0 | 20.9 | 0.00 | 0.10 | 0.00 | 69 | 1008.2 |
| 20260506082001 | 18 | 50 | 9.7 | 20.9 | 0.00 | 0.10 | 0.00 | 69 | 1008.2 |
| 20260506081502 | 18 | 50 | 8.0 | 19.3 | 0.00 | 0.10 | 0.00 | 68 | 1008.2 |
| 20260506081001 | 18 | 50 | 8.0 | 19.3 | 0.00 | 0.10 | 0.00 | 68 | 1008.2 |
| 20260506080502 | 18 | 50 | 8.0 | 17.7 | 0.00 | 0.10 | 0.00 | 68 | 1008.2 |
| 20260506073501 | 18 | 50 | 6.4 | 12.9 | 0.00 | 0.10 | 0.00 | 65 | 1008.3 |
| 20260506073003 | 18 | 50 | 4.8 | 12.9 | 0.00 | 0.10 | 0.00 | 65 | 1008.3 |
| 20260506072501 | 18 | 50 | 4.8 | 12.9 | 0.00 | 0.10 | 0.00 | 65 | 1008.4 |
| 20260506071001 | 18 | 50 | 6.4 | 14.5 | 0.00 | 0.10 | 0.00 | 64 | 1008.5 |
| 20260506070501 | 19 | 50 | 6.4 | 14.5 | 0.00 | 0.10 | 0.00 | 64 | 1008.5 |
| 20260506062501 | 19 | 50 | 8.0 | 16.1 | 0.00 | 0.10 | 0.00 | 63 | 1008.7 |
| 20260506062003 | 19 | 50 | 6.4 | 16.1 | 0.00 | 0.10 | 0.00 | 63 | 1008.8 |
| 20260506061001 | 19 | 50 | 8.0 | 17.7 | 0.00 | 0.10 | 0.00 | 62 | 1008.9 |
| 20260506060501 | 19 | 50 | 6.4 | 14.5 | 0.00 | 0.10 | 0.00 | 62 | 1009.0 |
| 20260506051003 | 19 | 50 | 8.0 | 19.3 | 0.00 | 0.10 | 0.00 | 60 | 1009.3 |
| 20260506050501 | 19 | 50 | 8.0 | 19.3 | 0.00 | 0.10 | 0.00 | 60 | 1009.4 |
| 20260506045001 | 19 | 50 | 4.8 | 12.9 | 0.00 | 0.10 | 0.00 | 60 | 1009.4 |
| 20260506044502 | 19 | 50 | 6.4 | 14.5 | 0.00 | 0.10 | 0.00 | 60 | 1009.4 |
| 20260506044001 | 19 | 50 | 8.0 | 14.5 | 0.00 | 0.10 | 0.00 | 60 | 1009.4 |
| 20260506043501 | 18 | 50 | 6.4 | 14.5 | 0.00 | 0.10 | 0.00 | 60 | 1009.3 |
| 20260506043003 | 18 | 50 | 6.4 | 14.5 | 0.00 | 0.10 | 0.00 | 60 | 1009.3 |
| 20260506042501 | 18 | 50 | 6.4 | 12.9 | 0.00 | 0.10 | 0.00 | 61 | 1009.4 |
| 20260506042001 | 18 | 50 | 6.4 | 16.1 | 0.00 | 0.10 | 0.00 | 60 | 1009.4 |
| 20260506041503 | 19 | 50 | 8.0 | 17.7 | 0.00 | 0.10 | 0.00 | 60 | 1009.4 |
| 20260506041001 | 19 | 50 | 6.4 | 17.7 | 0.00 | 0.10 | 0.00 | 61 | 1009.5 |
| 20260506040501 | 19 | 50 | 6.4 | 12.9 | 0.00 | 0.10 | 0.00 | 61 | 1009.4 |
| 20260506040004 | 19 | 50 | 4.8 | 9.7 | 0.00 | 0.10 | 0.10 | 60 | 1009.4 |
| 20260506035501 | 19 | 50 | 6.4 | 12.9 | 0.00 | 0.10 | 0.10 | 60 | 1009.3 |
| 20260506035002 | 19 | 50 | 4.8 | 12.9 | 0.00 | 0.10 | 0.10 | 60 | 1009.4 |
| 20260506034502 | 19 | 50 | 4.8 | 9.7 | 0.00 | 0.10 | 0.10 | 60 | 1009.4 |
| 20260506034001 | 19 | 50 | 4.8 | 9.7 | 0.00 | 0.10 | 0.10 | 59 | 1009.4 |
| 20260506033501 | 19 | 50 | 4.8 | 12.9 | 0.00 | 0.10 | 0.10 | 59 | 1009.4 |
| 20260506033002 | 19 | 50 | 6.4 | 12.9 | 0.00 | 0.10 | 0.10 | 59 | 1009.4 |
| 20260506032502 | 20 | 50 | 4.8 | 9.7 | 0.00 | 0.10 | 0.10 | 58 | 1009.4 |
| 20260506032001 | 20 | 50 | 6.4 | 12.9 | 0.00 | 0.10 | 0.10 | 58 | 1009.4 |
| 20260506031502 | 20 | 50 | 6.4 | 12.9 | 0.00 | 0.10 | 0.10 | 57 | 1009.4 |
| 20260506031001 | 20 | 50 | 4.8 | 12.9 | 0.00 | 0.10 | 0.10 | 57 | 1009.4 |
| 20260506030501 | 20 | 50 | 6.4 | 14.5 | 0.00 | 0.10 | 0.10 | 57 | 1009.4 |
| 20260506030004 | 20 | 50 | 6.4 | 14.5 | 0.00 | 0.10 | 0.10 | 56 | 1009.5 |
| 20260506025501 | 20 | 50 | 6.4 | 14.5 | 0.00 | 0.10 | 0.10 | 56 | 1009.4 |
| 20260506025001 | 20 | 50 | 8.0 | 16.1 | 0.00 | 0.10 | 0.10 | 55 | 1009.4 |
| 20260506024502 | 20 | 50 | 6.4 | 16.1 | 0.00 | 0.10 | 0.10 | 55 | 1009.4 |
| 20260506024001 | 20 | 50 | 6.4 | 17.7 | 0.00 | 0.10 | 0.10 | 54 | 1009.4 |
| 20260506023002 | 21 | 50 | 6.4 | 17.7 | 0.00 | 0.10 | 0.10 | 54 | 1009.5 |
| 20260506022501 | 21 | 50 | 6.4 | 17.7 | 0.00 | 0.10 | 0.10 | 53 | 1009.5 |
| 20260506022001 | 21 | 50 | 6.4 | 14.5 | 0.00 | 0.10 | 0.10 | 53 | 1009.5 |
| 20260506021502 | 21 | 50 | 6.4 | 12.9 | 0.00 | 0.10 | 0.10 | 53 | 1009.5 |
| 20260506020501 | 21 | 50 | 9.7 | 17.7 | 0.00 | 0.10 | 0.10 | 52 | 1009.4 |
| 20260506020007 | 21 | 50 | 9.7 | 17.7 | 0.00 | 0.10 | 0.10 | 52 | 1009.3 |
| 20260506015501 | 21 | 50 | 11.3 | 20.9 | 0.00 | 0.10 | 0.10 | 51 | 1009.3 |
| 20260506014502 | 21 | 50 | 11.3 | 29.0 | 0.00 | 0.10 | 0.10 | 51 | 1009.2 |
| 20260506013501 | 21 | 50 | 9.7 | 24.1 | 0.00 | 0.10 | 0.10 | 51 | 1009.3 |
| 20260506013002 | 21 | 50 | 8.0 | 17.7 | 0.00 | 0.10 | 0.10 | 51 | 1009.2 |
| 20260506012500 | 22 | 50 | 9.7 | 22.5 | 0.00 | 0.10 | 0.10 | 51 | 1009.1 |
| 20260506012001 | 22 | 50 | 9.7 | 22.5 | 0.00 | 0.10 | 0.10 | 50 | 1008.9 |
| 20260506011502 | 22 | 50 | 8.0 | 17.7 | 0.00 | 0.10 | 0.10 | 50 | 1008.9 |
| 20260506010501 | 22 | 50 | 8.0 | 16.1 | 0.00 | 0.10 | 0.10 | 49 | 1008.8 |
| 20260506010004 | 22 | 50 | 8.0 | 14.5 | 0.00 | 0.10 | 0.10 | 49 | 1008.6 |
| 20260506005501 | 22 | 50 | 6.4 | 14.5 | 0.00 | 0.10 | 0.10 | 49 | 1008.6 |
| 20260506005002 | 22 | 50 | 6.4 | 17.7 | 0.00 | 0.10 | 0.10 | 49 | 1008.5 |
| 20260506004501 | 22 | 50 | 8.0 | 17.7 | 0.00 | 0.10 | 0.10 | 49 | 1008.4 |
| 20260506003501 | 22 | 50 | 9.7 | 19.3 | 0.00 | 0.10 | 0.10 | 48 | 1008.5 |
| 20260506003002 | 22 | 50 | 9.7 | 17.7 | 0.00 | 0.10 | 0.10 | 48 | 1008.5 |
| 20260506002501 | 22 | 50 | 8.0 | 20.9 | 0.00 | 0.10 | 0.10 | 48 | 1008.4 |
| 20260506002001 | 22 | 50 | 9.7 | 20.9 | 0.00 | 0.10 | 0.10 | 48 | 1008.4 |
| 20260506001502 | 23 | 50 | 9.7 | 19.3 | 0.00 | 0.10 | 0.10 | 48 | 1008.3 |
| 20260506001001 | 23 | 50 | 9.7 | 20.9 | 0.00 | 0.10 | 0.10 | 47 | 1008.2 |